GW0329 Weather Reports


time (UTC)temp
F
wind
direction
speed
knots
gust
knots
rain 1hr
in
rain 24hr
in
rain mn
in
humidity
%
barometer
mb
20260508054629 41 168 0.0 1.7 0.00 0.00 0.00 76 1012.8
20260508054127 41 34 0.0 0.9 0.00 0.00 0.00 78 1012.6
20260508053624 41 331 0.0 0.9 0.00 0.00 0.00 75 1012.8
20260508053122 41 330 0.9 1.7 0.00 0.00 0.00 75 1012.9
20260508052619 41 346 0.9 1.7 0.00 0.00 0.00 77 1012.9
20260508052116 41 342 0.0 0.9 0.00 0.00 0.00 77 1013.0
20260508051612 41 11 0.0 0.9 0.00 0.00 0.00 75 1013.0
20260508051107 41 348 1.7 1.7 0.00 0.00 0.00 73 1012.9
20260508050604 40 20 0.9 0.9 0.00 0.00 0.00 77 1012.9
20260508045557 39 14 0.9 1.7 0.00 0.00 0.00 80 1013.0
20260508045055 39 7 0.9 1.7 0.00 0.00 0.00 81 1013.2
20260508044552 38 344 0.9 0.9 0.00 0.00 0.00 82 1012.9
20260508044048 38 6 0.0 0.9 0.00 0.00 0.00 81 1012.9
20260508043545 38 19 0.9 1.7 0.00 0.00 0.00 83 1012.8
20260508043043 38 21 1.7 1.7 0.00 0.00 0.00 83 1012.9
20260508042539 38 15 0.9 1.7 0.00 0.00 0.00 82 1013.0
20260508042037 38 2 0.9 1.7 0.00 0.00 0.00 80 1012.8
20260508041533 39 8 1.7 1.7 0.00 0.00 0.00 82 1012.8
20260508041029 39 11 1.7 1.7 0.00 0.00 0.00 81 1012.7
20260508040526 39 5 0.9 0.9 0.00 0.00 0.00 80 1012.6
20260508040024 39 36 0.9 0.9 0.00 0.00 0.00 80 1012.6
20260508035521 39 2 0.9 0.9 0.00 0.00 0.00 78 1012.7
20260508035018 39 5 0.9 1.7 0.00 0.00 0.00 78 1012.7
20260508034515 39 25 0.9 0.9 0.00 0.00 0.00 78 1012.7
20260508034012 40 51 0.0 0.0 0.00 0.00 0.00 77 1012.8
20260508033510 40 11 0.0 1.7 0.00 0.00 0.00 77 1012.7
20260508033007 40 9 0.9 1.7 0.00 0.00 0.00 77 1012.7
20260508032504 41 40 0.0 0.9 0.00 0.00 0.00 76 1012.7
20260508032001 41 44 0.0 0.0 0.00 0.00 0.00 75 1012.8
20260508031459 41 18 0.0 0.9 0.00 0.00 0.00 72 1012.8
20260508030953 41 358 0.9 0.9 0.00 0.00 0.00 69 1012.7
20260508030451 42 42 0.0 1.7 0.00 0.00 0.00 70 1012.8
20260508025948 42 10 1.7 1.7 0.00 0.00 0.00 69 1012.9
20260508025444 42 20 0.9 1.7 0.00 0.00 0.00 68 1012.8
20260508024942 42 10 1.7 1.7 0.00 0.00 0.00 71 1012.8
20260508024438 42 7 0.9 1.7 0.00 0.00 0.00 71 1012.7
20260508023935 42 36 0.0 0.9 0.00 0.00 0.00 67 1012.9
20260508023431 42 0 0.0 0.0 0.00 0.00 0.00 70 1012.8
20260508022929 43 0 0.0 0.0 0.00 0.00 0.00 69 1012.9
20260508022424 43 11 0.0 0.9 0.00 0.00 0.00 67 1012.6
20260508021921 44 21 0.0 0.9 0.00 0.00 0.00 64 1012.7
20260508021418 44 207 0.0 0.0 0.00 0.00 0.00 63 1012.6
20260508020913 45 224 0.0 0.9 0.00 0.00 0.00 64 1012.6
20260508020412 45 312 0.0 0.0 0.00 0.00 0.00 61 1012.7
20260508015908 45 39 0.9 0.9 0.00 0.00 0.00 58 1012.4
20260508015406 46 17 0.9 0.9 0.00 0.00 0.00 61 1012.7
20260508014902 46 74 0.0 0.0 0.00 0.00 0.00 58 1012.5
20260508014400 47 50 0.0 0.0 0.00 0.00 0.00 55 1012.4
20260508013855 47 23 0.9 0.9 0.00 0.00 0.00 54 1012.3
20260508013351 48 356 0.0 0.0 0.00 0.00 0.00 53 1012.3
20260508012849 48 345 0.0 1.7 0.00 0.00 0.00 51 1012.3
20260508012346 49 342 0.9 1.7 0.00 0.00 0.00 51 1012.1
20260508011844 50 356 0.9 2.6 0.00 0.00 0.00 50 1012.1
20260508011341 50 273 1.7 3.5 0.00 0.00 0.00 49 1012.2
20260508010838 50 286 3.5 3.5 0.00 0.00 0.00 48 1012.0
20260508010336 50 282 2.6 3.5 0.00 0.00 0.00 48 1011.9
20260508005833 50 304 3.5 4.3 0.00 0.00 0.00 48 1012.0
20260508005329 51 313 2.6 4.3 0.00 0.00 0.00 48 1011.9
20260508004825 51 288 1.7 3.5 0.00 0.00 0.00 48 1011.8
20260508004322 51 312 0.0 3.5 0.00 0.00 0.00 48 1011.5
20260508003818 52 298 0.9 4.3 0.00 0.00 0.00 46 1011.9
20260508003316 52 264 2.6 4.3 0.00 0.00 0.00 45 1011.8
20260508002813 53 286 2.6 7.0 0.00 0.00 0.00 44 1011.5
20260508002309 53 281 2.6 5.2 0.00 0.00 0.00 44 1011.5
20260508001805 53 274 4.3 9.6 0.00 0.00 0.00 43 1011.2
20260508001301 53 336 1.7 5.2 0.00 0.00 0.00 45 1011.3
20260508000757 54 292 1.7 6.1 0.00 0.00 0.00 43 1011.4
20260508000257 54 318 3.5 12.2 0.00 0.00 0.00 41 1011.2
20260507235751 55 289 7.0 14.8 0.00 0.00 0.00 40 1011.2
20260507235249 55 265 5.2 14.8 0.00 0.00 0.00 40 1010.9
20260507234745 55 275 2.6 13.0 0.00 0.00 0.00 40 1010.9
20260507234242 55 293 11.3 13.9 0.00 0.00 0.00 40 1010.9
20260507233738 56 299 7.0 17.4 0.00 0.00 0.00 39 1011.0
20260507233237 56 263 6.1 10.4 0.00 0.00 0.00 40 1011.0
20260507232734 56 300 3.5 12.2 0.00 0.00 0.00 40 1010.9
20260507232230 56 318 11.3 20.0 0.00 0.00 0.00 39 1010.7
20260507231727 57 331 11.3 20.0 0.00 0.00 0.00 39 1010.7
20260507231224 57 304 5.2 7.8 0.00 0.00 0.00 41 1010.7
20260507230720 57 349 3.5 14.8 0.00 0.00 0.00 40 1010.6
20260507230218 57 291 4.3 11.3 0.00 0.00 0.00 40 1010.6
20260507225717 56 265 6.1 16.5 0.00 0.00 0.00 40 1010.8
20260507225214 56 265 5.2 13.0 0.00 0.00 0.00 41 1010.6
20260507224710 57 285 10.4 10.4 0.00 0.00 0.00 40 1010.7
20260507224207 58 287 16.5 17.4 0.00 0.00 0.00 39 1010.5
20260507223703 58 278 9.6 12.2 0.00 0.00 0.00 39 1010.4
20260507223200 57 274 13.0 20.9 0.00 0.00 0.00 40 1010.3
20260507222657 57 282 3.5 7.0 0.00 0.00 0.00 41 1010.5
20260507222153 57 317 5.2 11.3 0.00 0.00 0.00 39 1010.3
20260507221649 57 279 6.1 12.2 0.00 0.00 0.00 39 1010.3
20260507221146 58 247 2.6 9.6 0.00 0.00 0.00 41 1010.3
20260507220643 58 346 8.7 9.6 0.00 0.00 0.00 40 1010.1
20260507220141 57 300 1.7 6.1 0.00 0.00 0.00 41 1010.0
20260507215637 57 304 1.7 5.2 0.00 0.00 0.00 41 1009.9
20260507215135 58 271 3.5 11.3 0.00 0.00 0.00 39 1010.1
20260507214631 59 22 6.1 12.2 0.00 0.00 0.00 37 1010.1
20260507214128 58 280 5.2 11.3 0.00 0.00 0.00 39 1009.7
20260507213624 59 241 7.0 13.0 0.00 0.00 0.00 36 1009.8
20260507213122 59 274 6.1 11.3 0.00 0.00 0.00 39 1009.7
20260507212617 58 287 3.5 7.0 0.00 0.00 0.00 40 1009.6
20260507212114 59 335 2.6 13.0 0.00 0.00 0.00 38 1009.4
20260507211611 58 282 4.3 13.0 0.00 0.00 0.00 38 1009.6
20260507211107 58 290 7.0 13.9 0.00 0.00 0.00 38 1009.5
20260507210605 58 273 7.8 11.3 0.00 0.00 0.00 37 1009.6
20260507205558 59 275 5.2 7.8 0.00 0.00 0.00 36 1009.5
20260507205054 58 266 2.6 7.8 0.00 0.00 0.00 40 1009.4
20260507204550 58 306 5.2 11.3 0.00 0.00 0.00 37 1009.5
20260507204048 59 280 7.0 13.0 0.00 0.00 0.00 36 1009.7
20260507203545 59 295 12.2 14.8 0.00 0.00 0.00 37 1009.5
20260507203043 59 277 10.4 13.0 0.00 0.00 0.00 36 1009.7
20260507202538 59 281 3.5 8.7 0.00 0.00 0.00 37 1009.7
20260507202035 59 296 7.0 11.3 0.00 0.00 0.00 36 1009.5
20260507201530 59 260 8.7 13.0 0.00 0.00 0.00 36 1009.6
20260507201027 59 267 2.6 5.2 0.00 0.00 0.00 37 1009.6
20260507200522 60 297 7.8 15.6 0.00 0.00 0.00 36 1009.6
20260507200019 58 243 4.3 9.6 0.00 0.00 0.00 39 1009.8
20260507195516 59 258 7.8 13.9 0.00 0.00 0.00 37 1009.7
20260507195014 59 276 4.3 9.6 0.00 0.00 0.00 36 1009.5
20260507194510 58 259 3.5 11.3 0.00 0.00 0.00 38 1009.9
20260507194006 59 311 6.1 13.0 0.00 0.00 0.00 37 1009.8
20260507193503 59 294 6.1 14.8 0.00 0.00 0.00 36 1009.8
20260507193000 59 275 8.7 9.6 0.00 0.00 0.00 37 1009.8
20260507192455 61 252 7.0 13.0 0.00 0.00 0.00 35 1010.0
20260507191953 61 245 6.1 16.5 0.00 0.00 0.00 35 1010.0
20260507191449 61 303 7.0 8.7 0.00 0.00 0.00 37 1010.0
20260507190946 60 278 8.7 9.6 0.00 0.00 0.00 36 1009.7
20260507190443 60 209 3.5 7.0 0.00 0.00 0.00 37 1009.8
20260507185942 61 282 8.7 12.2 0.00 0.00 0.00 36 1009.9
20260507185439 61 220 7.0 8.7 0.00 0.00 0.00 34 1009.7
20260507184935 61 282 6.1 10.4 0.00 0.00 0.00 36 1009.9
20260507184434 60 286 9.6 13.0 0.00 0.00 0.00 37 1009.8
20260507183931 60 238 5.2 8.7 0.00 0.00 0.00 36 1010.0
20260507183427 58 298 7.8 9.6 0.00 0.00 0.00 37 1009.9
20260507182925 59 2 3.5 7.0 0.00 0.00 0.00 39 1010.0
20260507182421 59 214 3.5 8.7 0.00 0.00 0.00 39 1010.2
20260507181917 58 311 3.5 9.6 0.00 0.00 0.00 37 1010.0
20260507181413 58 313 9.6 17.4 0.00 0.00 0.00 37 1010.3
20260507180910 58 223 1.7 7.8 0.00 0.00 0.00 41 1010.2
20260507180407 58 254 5.2 9.6 0.00 0.00 0.00 38 1010.2
20260507175903 59 246 5.2 10.4 0.00 0.00 0.00 38 1010.3
20260507175400 59 244 6.1 8.7 0.00 0.00 0.00 41 1010.4
20260507174857 59 204 3.5 9.6 0.00 0.00 0.00 38 1010.4
20260507174354 59 218 5.2 12.2 0.00 0.00 0.00 38 1010.4
20260507173852 60 237 7.0 9.6 0.00 0.00 0.00 43 1010.4
20260507173349 59 271 7.0 9.6 0.00 0.00 0.00 44 1010.5
20260507172845 59 235 6.1 8.7 0.00 0.00 0.00 39 1010.6
20260507172342 59 221 5.2 8.7 0.00 0.00 0.00 38 1010.5
20260507171838 59 242 4.3 7.8 0.00 0.00 0.00 40 1010.7
20260507171335 59 213 12.2 13.9 0.00 0.00 0.00 40 1010.8
20260507170832 58 236 2.6 13.0 0.00 0.00 0.00 45 1010.6
20260507170328 59 278 6.1 16.5 0.00 0.00 0.00 41 1010.7
20260507165824 59 215 5.2 10.4 0.00 0.00 0.00 42 1010.7
20260507165320 59 308 6.1 10.4 0.00 0.00 0.00 42 1010.7
20260507164816 59 245 7.0 10.4 0.00 0.00 0.00 42 1010.7
20260507164314 60 232 4.3 11.3 0.00 0.00 0.00 41 1010.7
20260507163811 58 212 1.7 7.0 0.00 0.00 0.00 47 1010.8
20260507163309 59 224 2.6 5.2 0.00 0.00 0.00 42 1010.8
20260507162804 58 232 3.5 10.4 0.00 0.00 0.00 44 1010.8
20260507162300 59 238 7.8 8.7 0.00 0.00 0.00 43 1011.0
20260507161758 59 274 8.7 12.2 0.00 0.00 0.00 42 1010.8
20260507161254 57 202 7.0 13.0 0.00 0.00 0.00 43 1010.9
20260507160750 58 272 3.5 13.0 0.00 0.00 0.00 43 1010.7
20260507160246 58 178 3.5 9.6 0.00 0.00 0.00 44 1010.9
20260507155742 59 250 2.6 7.8 0.00 0.00 0.00 44 1011.3
20260507155238 59 245 4.3 8.7 0.00 0.00 0.00 45 1011.1
20260507154735 58 196 2.6 8.7 0.00 0.00 0.00 43 1011.0
20260507154233 59 269 6.1 11.3 0.00 0.00 0.00 39 1011.1
20260507153729 58 193 1.7 3.5 0.00 0.00 0.00 47 1011.2
20260507153226 57 227 2.6 7.8 0.00 0.00 0.00 47 1011.3
20260507152722 57 248 3.5 5.2 0.00 0.00 0.00 48 1011.2
20260507152219 55 287 2.6 4.3 0.00 0.00 0.00 48 1011.2
20260507151715 56 300 1.7 8.7 0.00 0.00 0.00 45 1011.3
20260507151211 55 217 4.3 6.1 0.00 0.00 0.00 51 1011.4
20260507150708 55 275 3.5 6.1 0.00 0.00 0.00 48 1011.5
20260507150205 56 250 3.5 7.8 0.00 0.00 0.00 51 1011.5
20260507145701 56 237 4.3 4.3 0.00 0.00 0.00 49 1011.8
20260507145158 55 244 2.6 7.0 0.00 0.00 0.00 48 1011.8
20260507144654 54 221 2.6 5.2 0.00 0.00 0.00 56 1011.9
20260507144153 55 239 3.5 7.0 0.00 0.00 0.00 51 1012.0
20260507143649 55 230 6.1 7.8 0.00 0.00 0.00 54 1011.8
20260507143146 56 219 4.3 5.2 0.00 0.00 0.00 53 1011.9
20260507142642 57 228 9.6 9.6 0.00 0.00 0.00 51 1012.0
20260507142139 55 293 3.5 7.0 0.00 0.00 0.00 56 1011.9
20260507141635 55 220 11.3 12.2 0.00 0.00 0.00 55 1012.3
20260507141132 55 230 8.7 8.7 0.00 0.00 0.00 55 1012.2
20260507140628 55 277 5.2 7.8 0.00 0.00 0.00 58 1012.2
20260507140126 55 263 6.1 7.8 0.00 0.00 0.00 55 1012.3
20260507135623 55 267 2.6 6.1 0.00 0.00 0.00 54 1012.4
20260507135120 54 255 1.7 6.1 0.00 0.00 0.00 58 1012.5
20260507134616 55 128 1.7 7.0 0.00 0.00 0.00 57 1012.5
20260507134112 55 253 2.6 3.5 0.00 0.00 0.00 57 1012.5
20260507133608 54 261 3.5 5.2 0.00 0.00 0.00 60 1012.5
20260507133106 54 232 4.3 5.2 0.00 0.00 0.00 62 1012.5
20260507132603 53 197 0.9 2.6 0.00 0.00 0.00 66 1012.5
20260507132059 53 226 3.5 3.5 0.00 0.00 0.00 63 1012.6
20260507131556 52 211 1.7 1.7 0.00 0.00 0.00 65 1012.6
20260507131054 51 188 1.7 3.5 0.00 0.00 0.00 65 1012.5
20260507130550 51 218 2.6 3.5 0.00 0.00 0.00 65 1012.6
20260507130048 50 232 1.7 2.6 0.00 0.00 0.00 69 1012.8
20260507125547 50 213 1.7 2.6 0.00 0.00 0.00 70 1012.7
20260507125044 49 216 1.7 3.5 0.00 0.00 0.00 69 1012.8
20260507124540 49 209 0.0 2.6 0.00 0.00 0.00 70 1012.8
20260507124038 49 234 2.6 3.5 0.00 0.00 0.00 70 1012.8
20260507123536 48 252 2.6 5.2 0.00 0.00 0.00 72 1012.8
20260507123032 47 254 0.9 1.7 0.00 0.00 0.00 78 1012.9
20260507122527 47 216 1.7 2.6 0.00 0.00 0.00 78 1012.7
20260507122024 46 234 1.7 3.5 0.00 0.00 0.00 80 1012.7
20260507121519 46 228 0.0 2.6 0.00 0.00 0.00 82 1012.8
20260507121015 46 245 0.0 1.7 0.00 0.00 0.00 87 1012.6
20260507120512 45 246 0.9 1.7 0.00 0.00 0.00 92 1012.8
20260507120009 44 338 0.0 1.7 0.00 0.00 0.00 96 1012.7
20260507115505 43 341 0.0 1.7 0.00 0.00 0.00 98 1012.5
20260507115001 42 343 0.0 1.7 0.00 0.00 0.00 98 1012.7
20260507114457 41 334 0.9 1.7 0.00 0.00 0.00 99 1012.7
20260507113955 41 339 0.9 1.7 0.00 0.00 0.00 99 1012.9
20260507113452 41 327 0.0 0.9 0.00 0.00 0.00 99 1012.8
20260507112949 40 25 0.0 0.0 0.00 0.00 0.00 99 1012.6
20260507112446 39 331 0.0 0.0 0.00 0.00 0.00 99 1012.5
20260507111943 39 18 0.0 0.0 0.00 0.00 0.00 99 1012.6
20260507111440 37 24 0.0 0.9 0.00 0.00 0.00 99 1012.4
20260507110936 36 10 1.7 1.7 0.00 0.00 0.00 99 1012.4
20260507110433 36 2 0.9 1.7 0.00 0.00 0.00 99 1012.4
20260507105929 35 5 1.7 1.7 0.00 0.00 0.00 98 1012.4
20260507105426 35 0 0.9 1.7 0.00 0.00 0.00 98 1012.4
20260507104923 35 2 0.9 0.9 0.00 0.00 0.00 98 1012.3
20260507104420 35 11 0.9 0.9 0.00 0.00 0.00 98 1012.5
20260507103915 34 16 0.0 1.7 0.00 0.00 0.00 98 1012.3
20260507103413 34 14 1.7 1.7 0.00 0.00 0.00 98 1012.2
20260507102909 34 17 1.7 1.7 0.00 0.00 0.00 98 1012.3
20260507102406 34 11 1.7 1.7 0.00 0.00 0.00 98 1012.4
20260507101902 34 8 1.7 1.7 0.00 0.00 0.00 98 1012.2
20260507101402 34 13 1.7 1.7 0.00 0.00 0.00 98 1012.3
20260507100859 34 24 0.9 1.7 0.00 0.00 0.00 98 1012.2
20260507100357 34 32 0.0 0.0 0.00 0.00 0.00 98 1012.1
20260507095855 34 32 0.0 0.9 0.00 0.00 0.00 98 1011.8
20260507095351 34 20 0.0 0.9 0.00 0.00 0.00 98 1012.2
20260507094849 34 356 0.9 1.7 0.00 0.00 0.00 98 1011.9
20260507094345 35 0 0.0 1.7 0.00 0.00 0.00 98 1012.1
20260507093842 35 33 0.9 0.9 0.00 0.00 0.00 98 1012.0
20260507093340 35 23 0.9 1.7 0.00 0.00 0.00 98 1011.9
20260507092838 35 22 0.9 1.7 0.00 0.00 0.00 98 1012.0
20260507092334 35 0 0.9 1.7 0.00 0.00 0.00 97 1012.1
20260507091830 35 25 0.0 0.9 0.00 0.00 0.00 98 1012.2
20260507091327 35 43 0.9 1.7 0.00 0.00 0.00 97 1012.2
20260507090823 35 353 1.7 1.7 0.00 0.00 0.00 97 1012.4
20260507090319 35 8 1.7 1.7 0.00 0.00 0.00 97 1012.2
20260507085816 35 342 0.9 1.7 0.00 0.00 0.00 97 1012.1
20260507085313 35 338 0.0 0.0 0.00 0.00 0.00 97 1012.2
20260507084811 35 44 0.0 0.9 0.00 0.00 0.00 97 1012.0
20260507084307 35 27 0.0 0.0 0.00 0.00 0.00 97 1012.1
20260507083805 36 343 0.0 0.9 0.00 0.00 0.00 97 1012.2
20260507083301 36 32 0.0 0.9 0.00 0.00 0.00 97 1012.3
20260507082757 36 44 0.0 0.9 0.00 0.00 0.00 97 1012.2
20260507082253 36 10 0.9 1.7 0.00 0.00 0.00 97 1012.3
20260507081750 36 26 0.0 0.9 0.00 0.00 0.00 97 1012.3
20260507081245 36 27 0.0 0.0 0.00 0.00 0.00 96 1012.2
20260507080742 36 27 0.0 0.0 0.00 0.00 0.00 96 1012.2
20260507080239 37 347 0.0 0.0 0.00 0.00 0.00 96 1012.4
20260507075734 37 22 0.0 1.7 0.00 0.00 0.00 96 1012.3
20260507075231 37 28 1.7 1.7 0.00 0.00 0.00 96 1012.3
20260507074727 37 12 0.9 0.9 0.00 0.00 0.00 96 1012.3
20260507074225 37 351 0.9 0.9 0.00 0.00 0.00 95 1012.2
20260507073722 37 27 0.0 0.0 0.00 0.00 0.00 96 1012.4
20260507073218 37 27 0.0 0.9 0.00 0.00 0.00 96 1012.4
20260507072716 38 354 1.7 1.7 0.00 0.00 0.00 96 1012.2
20260507072213 38 24 0.0 1.7 0.00 0.00 0.00 95 1012.2
20260507071711 38 89 0.0 0.9 0.00 0.00 0.00 95 1012.5
20260507071207 38 51 0.0 0.9 0.00 0.00 0.00 95 1012.3
20260507070704 38 11 0.0 0.0 0.00 0.00 0.00 95 1012.3
20260507070201 38 44 0.0 0.9 0.00 0.00 0.00 94 1012.4
20260507065657 38 12 0.0 1.7 0.00 0.00 0.00 94 1012.5
20260507065154 38 341 1.7 1.7 0.00 0.00 0.00 93 1012.7
20260507064651 39 323 0.0 0.0 0.00 0.00 0.00 93 1012.6
20260507064150 39 21 0.0 0.0 0.00 0.00 0.00 93 1012.7
20260507063647 39 21 0.0 0.0 0.00 0.00 0.00 92 1012.5
20260507063144 39 23 0.0 0.9 0.00 0.00 0.00 92 1012.3
20260507062641 40 356 0.9 0.9 0.00 0.00 0.00 91 1012.6
20260507062138 40 25 0.0 0.0 0.00 0.00 0.00 90 1012.5
20260507061636 41 21 0.0 0.0 0.00 0.00 0.00 90 1012.4
20260507061134 41 21 0.0 0.0 0.00 0.00 0.00 89 1012.5
20260507060632 41 21 0.0 0.0 0.00 0.00 0.00 87 1012.6
20260507060128 41 10 0.0 0.9 0.00 0.00 0.00 86 1012.8
20260507055623 41 9 1.7 1.7 0.00 0.00 0.00 85 1012.7
20260507055120 42 1 0.9 1.7 0.00 0.00 0.00 84 1012.8